,,PressureMeas_1m,,PRMeasQMR101_1,,RHStat155_1m_1,,SRMeasQMS101R_1m,,TAStat155_1m_1,,GenWind_1,,GenWind_1,
2019-10-09, 07:00:06,VALID,918.072,VALID,0.0,VALID,99.642,VALID,112.92,VALID,19.451,VALID,107.0,VALID,1.638,
2019-10-09, 07:01:06,VALID,918.12,VALID,0.0,VALID,99.355,VALID,115.756,VALID,19.461,VALID,76.0,VALID,1.286,
2019-10-09, 07:02:06,VALID,918.139,VALID,0.0,VALID,99.229,VALID,117.94,VALID,19.512,VALID,58.0,VALID,0.935,
2019-10-09, 07:03:06,VALID,918.167,VALID,0.0,VALID,99.078,VALID,118.838,VALID,19.575,VALID,80.0,VALID,0.757,
2019-10-09, 07:04:06,VALID,918.171,VALID,0.0,VALID,98.785,VALID,119.633,VALID,19.582,VALID,70.0,VALID,1.214,
2019-10-09, 07:05:06,VALID,918.15,VALID,0.0,VALID,97.706,VALID,121.809,VALID,19.515,VALID,58.0,VALID,1.599,
2019-10-09, 07:06:06,VALID,918.19,VALID,0.0,VALID,96.684,VALID,125.002,VALID,19.586,VALID,65.0,VALID,1.601,
2019-10-09, 07:07:06,VALID,918.182,VALID,0.0,VALID,96.662,VALID,129.655,VALID,19.7,VALID,135.0,VALID,0.477,
2019-10-09, 07:08:06,VALID,918.188,VALID,0.0,VALID,96.236,VALID,136.991,VALID,19.732,VALID,217.0,VALID,0.54,
2019-10-09, 07:09:06,VALID,918.175,VALID,0.0,VALID,94.915,VALID,142.082,VALID,19.796,VALID,172.0,VALID,0.667,
2019-10-09, 07:10:06,VALID,918.173,VALID,0.0,VALID,93.992,VALID,153.38,VALID,19.907,VALID,251.0,VALID,0.921,
2019-10-09, 07:11:06,VALID,918.22,VALID,0.0,VALID,94.454,VALID,172.485,VALID,20.036,VALID,70.0,VALID,0.875,
2019-10-09, 07:12:06,VALID,918.214,VALID,0.0,VALID,93.443,VALID,163.609,VALID,20.133,VALID,86.0,VALID,0.395,
2019-10-09, 07:13:06,VALID,918.24,VALID,0.0,VALID,93.35,VALID,160.391,VALID,20.245,VALID,38.0,VALID,0.504,
2019-10-09, 07:14:06,VALID,918.28,VALID,0.0,VALID,92.499,VALID,171.736,VALID,20.32,VALID,83.0,VALID,2.216,
2019-10-09, 07:15:06,VALID,918.208,VALID,0.0,VALID,92.312,VALID,179.975,VALID,20.395,VALID,106.0,VALID,1.448,
2019-10-09, 07:16:06,VALID,918.283,VALID,0.0,VALID,92.708,VALID,180.57,VALID,20.474,VALID,88.0,VALID,1.431,
2019-10-09, 07:17:06,VALID,918.316,VALID,0.0,VALID,92.931,VALID,183.324,VALID,20.486,VALID,118.0,VALID,0.907,
2019-10-09, 07:18:06,VALID,918.282,VALID,0.0,VALID,93.223,VALID,184.242,VALID,20.487,VALID,174.0,VALID,1.196,
2019-10-09, 07:19:06,VALID,918.319,VALID,0.0,VALID,90.646,VALID,184.722,VALID,20.512,VALID,143.0,VALID,1.224,
2019-10-09, 07:20:06,VALID,918.33,VALID,0.0,VALID,91.714,VALID,183.964,VALID,20.626,VALID,101.0,VALID,1.364,
2019-10-09, 07:21:06,VALID,918.329,VALID,0.0,VALID,91.04,VALID,182.507,VALID,20.669,VALID,74.0,VALID,2.17,
2019-10-09, 07:22:06,VALID,918.37,VALID,0.0,VALID,92.145,VALID,183.814,VALID,20.691,VALID,108.0,VALID,1.481,
2019-10-09, 07:23:06,VALID,918.364,VALID,0.0,VALID,91.049,VALID,189.693,VALID,20.666,VALID,136.0,VALID,0.754,
2019-10-09, 07:24:06,VALID,918.38,VALID,0.0,VALID,91.76,VALID,206.082,VALID,20.675,VALID,109.0,VALID,2.14,
2019-10-09, 07:25:06,VALID,918.356,VALID,0.0,VALID,89.753,VALID,212.689,VALID,20.726,VALID,104.0,VALID,3.163,
2019-10-09, 07:26:06,VALID,918.379,VALID,0.0,VALID,89.755,VALID,225.96,VALID,20.873,VALID,85.0,VALID,3.033,
2019-10-09, 07:27:06,VALID,918.378,VALID,0.0,VALID,91.171,VALID,267.836,VALID,20.899,VALID,57.0,VALID,3.54,
2019-10-09, 07:28:06,VALID,918.391,VALID,0.0,VALID,90.183,VALID,306.573,VALID,20.916,VALID,78.0,VALID,3.187,
2019-10-09, 07:29:06,VALID,918.423,VALID,0.0,VALID,89.943,VALID,340.299,VALID,21.029,VALID,77.0,VALID,2.973,
2019-10-09, 07:30:06,VALID,918.445,VALID,0.0,VALID,89.256,VALID,345.476,VALID,21.128,VALID,84.0,VALID,3.975,
2019-10-09, 07:31:06,VALID,918.446,VALID,0.0,VALID,88.188,VALID,350.182,VALID,21.216,VALID,93.0,VALID,3.861,
2019-10-09, 07:32:06,VALID,918.471,VALID,0.0,VALID,87.485,VALID,347.299,VALID,21.283,VALID,77.0,VALID,3.73,
2019-10-09, 07:33:06,VALID,918.475,VALID,0.0,VALID,88.736,VALID,337.23,VALID,21.307,VALID,62.0,VALID,3.263,
2019-10-09, 07:34:06,VALID,918.5,VALID,0.0,VALID,88.023,VALID,332.718,VALID,21.364,VALID,89.0,VALID,3.047,
2019-10-09, 07:35:06,VALID,918.513,VALID,0.0,VALID,87.42,VALID,323.356,VALID,21.428,VALID,90.0,VALID,2.442,
2019-10-09, 07:36:06,VALID,918.522,VALID,0.0,VALID,87.23,VALID,325.822,VALID,21.536,VALID,69.0,VALID,1.678,
2019-10-09, 07:37:06,VALID,918.523,VALID,0.0,VALID,85.668,VALID,314.427,VALID,21.654,VALID,105.0,VALID,2.467,
2019-10-09, 07:38:06,VALID,918.513,VALID,0.0,VALID,86.473,VALID,294.416,VALID,21.734,VALID,118.0,VALID,2.179,
2019-10-09, 07:39:06,VALID,918.517,VALID,0.0,VALID,85.632,VALID,283.5,VALID,21.743,VALID,105.0,VALID,2.078,
2019-10-09, 07:40:06,VALID,918.539,VALID,0.0,VALID,85.544,VALID,302.762,VALID,21.735,VALID,120.0,VALID,1.327,
2019-10-09, 07:41:06,VALID,918.524,VALID,0.0,VALID,86.572,VALID,336.507,VALID,21.813,VALID,122.0,VALID,1.814,
2019-10-09, 07:42:06,VALID,918.528,VALID,0.0,VALID,86.903,VALID,354.586,VALID,21.903,VALID,125.0,VALID,1.163,
2019-10-09, 07:43:06,VALID,918.524,VALID,0.0,VALID,83.82,VALID,359.577,VALID,21.981,VALID,132.0,VALID,1.43,
2019-10-09, 07:44:06,VALID,918.528,VALID,0.0,VALID,83.465,VALID,346.244,VALID,22.078,VALID,158.0,VALID,1.056,
2019-10-09, 07:45:06,VALID,918.552,VALID,0.0,VALID,83.3,VALID,335.457,VALID,22.135,VALID,96.0,VALID,1.762,
2019-10-09, 07:46:06,VALID,918.553,VALID,0.0,VALID,84.756,VALID,355.803,VALID,22.207,VALID,55.0,VALID,0.916,
2019-10-09, 07:47:06,VALID,918.57,VALID,0.0,VALID,85.385,VALID,369.945,VALID,22.377,VALID,64.0,VALID,0.709,
2019-10-09, 07:48:06,VALID,918.58,VALID,0.0,VALID,84.647,VALID,366.218,VALID,22.544,VALID,17.0,VALID,0.685,
2019-10-09, 07:49:06,VALID,918.625,VALID,0.0,VALID,84.794,VALID,369.511,VALID,22.62,VALID,55.0,VALID,1.246,
2019-10-09, 07:50:06,VALID,918.605,VALID,0.0,VALID,81.911,VALID,362.036,VALID,22.704,VALID,188.0,VALID,0.552,
2019-10-09, 07:51:06,VALID,918.559,VALID,0.0,VALID,80.524,VALID,333.018,VALID,22.7,VALID,139.0,VALID,1.225,
2019-10-09, 07:52:06,VALID,918.592,VALID,0.0,VALID,79.808,VALID,324.894,VALID,22.768,VALID,109.0,VALID,1.35,
2019-10-09, 07:53:06,VALID,918.578,VALID,0.0,VALID,78.347,VALID,306.832,VALID,22.752,VALID,179.0,VALID,1.832,
2019-10-09, 07:54:06,VALID,918.596,VALID,0.0,VALID,80.092,VALID,314.199,VALID,22.623,VALID,129.0,VALID,1.017,
2019-10-09, 07:55:06,VALID,918.61,VALID,0.0,VALID,81.781,VALID,352.989,VALID,22.667,VALID,104.0,VALID,1.216,
2019-10-09, 07:56:06,VALID,918.622,VALID,0.0,VALID,81.64,VALID,367.449,VALID,22.764,VALID,96.0,VALID,1.209,
2019-10-09, 07:57:06,VALID,918.62,VALID,0.0,VALID,81.469,VALID,349.287,VALID,22.783,VALID,116.0,VALID,1.559,
2019-10-09, 07:58:06,VALID,918.637,VALID,0.0,VALID,77.969,VALID,308.68,VALID,22.669,VALID,193.0,VALID,1.5,
2019-10-09, 07:59:06,VALID,918.661,VALID,0.0,VALID,78.138,VALID,275.264,VALID,22.676,VALID,111.0,VALID,1.503,
2019-10-09, 08:00:06,VALID,918.686,VALID,0.0,VALID,77.85,VALID,252.767,VALID,22.716,VALID,88.0,VALID,1.915,
2019-10-09, 08:01:06,VALID,918.664,VALID,0.0,VALID,78.432,VALID,258.428,VALID,22.539,VALID,137.0,VALID,1.766,
2019-10-09, 08:02:06,VALID,918.687,VALID,0.0,VALID,77.012,VALID,286.625,VALID,22.496,VALID,125.0,VALID,2.173,
2019-10-09, 08:03:06,VALID,918.677,VALID,0.0,VALID,79.399,VALID,315.508,VALID,22.423,VALID,138.0,VALID,1.227,
2019-10-09, 08:04:06,VALID,918.679,VALID,0.0,VALID,79.079,VALID,415.834,VALID,22.495,VALID,132.0,VALID,1.41,
2019-10-09, 08:05:06,VALID,918.718,VALID,0.0,VALID,77.536,VALID,437.231,VALID,22.583,VALID,106.0,VALID,1.702,
2019-10-09, 08:06:06,VALID,918.734,VALID,0.0,VALID,76.417,VALID,448.464,VALID,22.676,VALID,98.0,VALID,2.347,
2019-10-09, 08:07:06,VALID,918.735,VALID,0.0,VALID,75.973,VALID,459.503,VALID,22.654,VALID,103.0,VALID,2.175,
2019-10-09, 08:08:06,VALID,918.734,VALID,0.0,VALID,76.709,VALID,465.666,VALID,22.824,VALID,144.0,VALID,0.611,
2019-10-09, 08:09:06,VALID,918.747,VALID,0.0,VALID,77.678,VALID,464.265,VALID,23.048,VALID,100.0,VALID,0.869,
2019-10-09, 08:10:06,VALID,918.762,VALID,0.0,VALID,77.43,VALID,455.965,VALID,23.183,VALID,79.0,VALID,1.685,
2019-10-09, 08:11:06,VALID,918.737,VALID,0.0,VALID,77.211,VALID,454.812,VALID,23.036,VALID,68.0,VALID,2.323,
2019-10-09, 08:12:06,VALID,918.735,VALID,0.0,VALID,78.377,VALID,461.443,VALID,22.932,VALID,50.0,VALID,1.28,
2019-10-09, 08:13:06,VALID,918.728,VALID,0.0,VALID,79.641,VALID,455.255,VALID,23.131,VALID,76.0,VALID,1.836,
2019-10-09, 08:14:06,VALID,918.737,VALID,0.0,VALID,78.492,VALID,437.983,VALID,23.215,VALID,63.0,VALID,2.147,
2019-10-09, 08:15:06,VALID,918.724,VALID,0.0,VALID,76.612,VALID,442.518,VALID,23.08,VALID,63.0,VALID,2.114,
2019-10-09, 08:16:06,VALID,918.71,VALID,0.0,VALID,76.215,VALID,461.877,VALID,22.964,VALID,60.0,VALID,2.585,
2019-10-09, 08:17:06,VALID,918.682,VALID,0.0,VALID,76.334,VALID,495.296,VALID,22.933,VALID,49.0,VALID,2.747,
2019-10-09, 08:18:06,VALID,918.706,VALID,0.0,VALID,75.78,VALID,513.788,VALID,22.893,VALID,59.0,VALID,4.522,
2019-10-09, 08:19:06,VALID,918.701,VALID,0.0,VALID,73.806,VALID,519.157,VALID,22.838,VALID,53.0,VALID,3.953,
2019-10-09, 08:20:06,VALID,918.726,VALID,0.0,VALID,74.195,VALID,527.991,VALID,22.878,VALID,64.0,VALID,2.684,
2019-10-09, 08:21:06,VALID,918.715,VALID,0.0,VALID,75.865,VALID,532.157,VALID,23.086,VALID,42.0,VALID,1.736,
2019-10-09, 08:22:06,VALID,918.707,VALID,0.0,VALID,74.574,VALID,530.431,VALID,23.242,VALID,62.0,VALID,1.672,
2019-10-09, 08:23:06,VALID,918.701,VALID,0.0,VALID,73.884,VALID,535.349,VALID,23.267,VALID,80.0,VALID,2.825,
2019-10-09, 08:24:06,VALID,918.728,VALID,0.0,VALID,74.936,VALID,541.721,VALID,23.269,VALID,80.0,VALID,3.294,
2019-10-09, 08:25:06,VALID,918.748,VALID,0.0,VALID,73.508,VALID,540.964,VALID,23.147,VALID,84.0,VALID,2.965,
2019-10-09, 08:26:06,VALID,918.782,VALID,0.0,VALID,75.066,VALID,544.995,VALID,23.17,VALID,77.0,VALID,2.828,
2019-10-09, 08:27:06,VALID,918.8,VALID,0.0,VALID,74.371,VALID,546.595,VALID,23.197,VALID,70.0,VALID,2.273,
2019-10-09, 08:28:06,VALID,918.844,VALID,0.0,VALID,75.388,VALID,548.842,VALID,23.311,VALID,81.0,VALID,3.073,
2019-10-09, 08:29:06,VALID,918.85,VALID,0.0,VALID,75.087,VALID,543.877,VALID,23.41,VALID,65.0,VALID,2.931,
2019-10-09, 08:30:06,VALID,918.89,VALID,0.0,VALID,74.483,VALID,549.342,VALID,23.42,VALID,72.0,VALID,2.3,
2019-10-09, 08:31:06,VALID,918.905,VALID,0.0,VALID,73.707,VALID,554.538,VALID,23.395,VALID,65.0,VALID,2.448,
2019-10-09, 08:32:06,VALID,918.941,VALID,0.0,VALID,74.13,VALID,560.298,VALID,23.443,VALID,55.0,VALID,3.233,
2019-10-09, 08:33:06,VALID,918.919,VALID,0.0,VALID,73.615,VALID,549.104,VALID,23.323,VALID,43.0,VALID,2.666,
2019-10-09, 08:34:06,VALID,918.969,VALID,0.0,VALID,75.148,VALID,536.711,VALID,23.357,VALID,65.0,VALID,2.19,
2019-10-09, 08:35:06,VALID,918.971,VALID,0.0,VALID,74.362,VALID,535.708,VALID,23.435,VALID,63.0,VALID,2.921,
2019-10-09, 08:36:06,VALID,918.978,VALID,0.0,VALID,74.507,VALID,528.619,VALID,23.583,VALID,70.0,VALID,1.882,
2019-10-09, 08:37:06,VALID,918.986,VALID,0.0,VALID,74.647,VALID,534.66,VALID,23.704,VALID,62.0,VALID,1.054,
2019-10-09, 08:38:06,VALID,918.995,VALID,0.0,VALID,75.463,VALID,529.551,VALID,23.981,VALID,72.0,VALID,1.279,
2019-10-09, 08:39:06,VALID,918.985,VALID,0.0,VALID,71.746,VALID,527.095,VALID,24.147,VALID,81.0,VALID,3.136,
2019-10-09, 08:40:06,VALID,919.002,VALID,0.0,VALID,72.104,VALID,530.391,VALID,23.978,VALID,88.0,VALID,2.154,
2019-10-09, 08:41:06,VALID,919.0,VALID,0.0,VALID,72.426,VALID,536.198,VALID,23.922,VALID,65.0,VALID,1.926,
2019-10-09, 08:42:06,VALID,919.007,VALID,0.0,VALID,73.283,VALID,527.902,VALID,23.976,VALID,63.0,VALID,2.017,
2019-10-09, 08:43:06,VALID,919.011,VALID,0.0,VALID,73.054,VALID,538.289,VALID,24.023,VALID,51.0,VALID,2.719,
2019-10-09, 08:44:06,VALID,919.044,VALID,0.0,VALID,73.314,VALID,532.939,VALID,23.959,VALID,86.0,VALID,2.106,
2019-10-09, 08:45:06,VALID,919.055,VALID,0.0,VALID,72.044,VALID,528.167,VALID,23.932,VALID,63.0,VALID,2.132,
2019-10-09, 08:46:06,VALID,919.08,VALID,0.0,VALID,72.77,VALID,522.447,VALID,23.846,VALID,55.0,VALID,2.483,
2019-10-09, 08:47:06,VALID,919.113,VALID,0.0,VALID,71.833,VALID,532.958,VALID,23.766,VALID,67.0,VALID,0.97,
2019-10-09, 08:48:06,VALID,919.149,VALID,0.0,VALID,71.653,VALID,549.065,VALID,23.827,VALID,79.0,VALID,1.513,
2019-10-09, 08:49:06,VALID,919.185,VALID,0.0,VALID,72.442,VALID,568.733,VALID,23.987,VALID,36.0,VALID,1.613,
2019-10-09, 08:50:06,VALID,919.218,VALID,0.0,VALID,71.476,VALID,574.329,VALID,24.171,VALID,52.0,VALID,1.209,
2019-10-09, 08:51:06,VALID,919.213,VALID,0.0,VALID,70.973,VALID,555.838,VALID,24.273,VALID,71.0,VALID,1.03,
2019-10-09, 08:52:06,VALID,919.235,VALID,0.0,VALID,72.396,VALID,546.031,VALID,24.565,VALID,31.0,VALID,1.416,
2019-10-09, 08:53:06,VALID,919.249,VALID,0.0,VALID,70.573,VALID,554.631,VALID,24.776,VALID,64.0,VALID,1.051,
2019-10-09, 08:54:06,VALID,919.232,VALID,0.0,VALID,67.724,VALID,566.299,VALID,24.831,VALID,57.0,VALID,1.261,
2019-10-09, 08:55:06,VALID,919.268,VALID,0.0,VALID,68.638,VALID,551.743,VALID,24.856,VALID,93.0,VALID,1.791,
2019-10-09, 08:56:06,VALID,919.256,VALID,0.0,VALID,67.522,VALID,554.708,VALID,24.792,VALID,79.0,VALID,2.019,
2019-10-09, 08:57:06,VALID,919.243,VALID,0.0,VALID,67.447,VALID,577.678,VALID,24.658,VALID,66.0,VALID,1.701,
2019-10-09, 08:58:06,VALID,919.241,VALID,0.0,VALID,69.304,VALID,591.181,VALID,24.498,VALID,59.0,VALID,1.645,
2019-10-09, 08:59:06,VALID,919.237,VALID,0.0,VALID,70.687,VALID,597.709,VALID,24.411,VALID,62.0,VALID,1.868,
2019-10-09, 09:00:06,VALID,919.248,VALID,0.0,VALID,69.051,VALID,616.388,VALID,24.367,VALID,107.0,VALID,2.773,
2019-10-09, 09:01:06,VALID,919.226,VALID,0.0,VALID,68.459,VALID,625.647,VALID,24.434,VALID,102.0,VALID,0.982,
2019-10-09, 09:02:06,VALID,919.214,VALID,0.0,VALID,71.305,VALID,636.578,VALID,24.822,VALID,72.0,VALID,1.164,
2019-10-09, 09:03:06,VALID,919.217,VALID,0.0,VALID,69.139,VALID,634.44,VALID,25.093,VALID,56.0,VALID,1.41,
2019-10-09, 09:04:06,VALID,919.242,VALID,0.0,VALID,68.589,VALID,636.333,VALID,25.085,VALID,72.0,VALID,1.326,
2019-10-09, 09:05:06,VALID,919.241,VALID,0.0,VALID,68.957,VALID,647.441,VALID,25.171,VALID,75.0,VALID,1.252,
2019-10-09, 09:06:06,VALID,919.24,VALID,0.0,VALID,65.324,VALID,651.821,VALID,25.32,VALID,137.0,VALID,0.707,
2019-10-09, 09:07:06,VALID,919.26,VALID,0.0,VALID,67.505,VALID,657.199,VALID,25.557,VALID,63.0,VALID,0.964,
2019-10-09, 09:08:06,VALID,919.264,VALID,0.0,VALID,64.645,VALID,658.443,VALID,25.604,VALID,58.0,VALID,1.458,
2019-10-09, 09:09:06,VALID,919.232,VALID,0.0,VALID,63.832,VALID,651.688,VALID,25.542,VALID,39.0,VALID,1.629,
2019-10-09, 09:10:06,VALID,919.224,VALID,0.0,VALID,62.204,VALID,658.964,VALID,25.346,VALID,47.0,VALID,1.636,
2019-10-09, 09:11:06,VALID,919.242,VALID,0.0,VALID,64.63,VALID,631.482,VALID,25.109,VALID,68.0,VALID,2.136,
2019-10-09, 09:12:06,VALID,919.205,VALID,0.0,VALID,63.671,VALID,561.604,VALID,24.992,VALID,43.0,VALID,1.628,
2019-10-09, 09:13:06,VALID,919.201,VALID,0.0,VALID,64.447,VALID,671.079,VALID,25.027,VALID,41.0,VALID,2.252,
2019-10-09, 09:14:06,VALID,919.213,VALID,0.0,VALID,65.066,VALID,673.778,VALID,24.966,VALID,62.0,VALID,2.78,
2019-10-09, 09:15:06,VALID,919.206,VALID,0.0,VALID,64.385,VALID,664.54,VALID,24.922,VALID,34.0,VALID,2.006,
2019-10-09, 09:16:06,VALID,919.232,VALID,0.0,VALID,64.781,VALID,652.522,VALID,24.864,VALID,59.0,VALID,1.329,
2019-10-09, 09:17:06,VALID,919.232,VALID,0.0,VALID,65.075,VALID,645.445,VALID,25.051,VALID,55.0,VALID,1.47,
2019-10-09, 09:18:06,VALID,919.249,VALID,0.0,VALID,65.3,VALID,654.966,VALID,25.086,VALID,51.0,VALID,1.21,
2019-10-09, 09:19:06,VALID,919.258,VALID,0.0,VALID,64.278,VALID,654.012,VALID,25.178,VALID,59.0,VALID,1.988,
2019-10-09, 09:20:06,VALID,919.248,VALID,0.0,VALID,63.387,VALID,655.353,VALID,25.09,VALID,68.0,VALID,1.415,
2019-10-09, 09:21:06,VALID,919.236,VALID,0.0,VALID,63.469,VALID,650.467,VALID,25.186,VALID,74.0,VALID,1.328,
2019-10-09, 09:22:06,VALID,919.246,VALID,0.0,VALID,66.761,VALID,651.718,VALID,25.447,VALID,56.0,VALID,1.575,
2019-10-09, 09:23:06,VALID,919.263,VALID,0.0,VALID,61.179,VALID,657.247,VALID,25.52,VALID,70.0,VALID,1.965,
2019-10-09, 09:24:06,VALID,919.247,VALID,0.0,VALID,61.691,VALID,669.037,VALID,25.355,VALID,41.0,VALID,2.002,
2019-10-09, 09:25:06,VALID,919.246,VALID,0.0,VALID,62.499,VALID,668.08,VALID,25.146,VALID,54.0,VALID,2.664,
2019-10-09, 09:26:06,VALID,919.247,VALID,0.0,VALID,63.119,VALID,675.796,VALID,24.991,VALID,44.0,VALID,2.173,
2019-10-09, 09:27:06,VALID,919.287,VALID,0.0,VALID,62.99,VALID,676.276,VALID,24.927,VALID,55.0,VALID,3.152,
2019-10-09, 09:28:06,VALID,919.247,VALID,0.0,VALID,61.709,VALID,679.314,VALID,24.781,VALID,55.0,VALID,3.277,
2019-10-09, 09:29:06,VALID,919.233,VALID,0.0,VALID,62.086,VALID,685.099,VALID,24.654,VALID,50.0,VALID,2.185,
2019-10-09, 09:30:06,VALID,919.206,VALID,0.0,VALID,63.322,VALID,676.756,VALID,24.62,VALID,35.0,VALID,2.925,
2019-10-09, 09:31:06,VALID,919.232,VALID,0.0,VALID,63.746,VALID,667.401,VALID,24.739,VALID,63.0,VALID,1.371,
2019-10-09, 09:32:06,VALID,919.214,VALID,0.0,VALID,63.522,VALID,668.935,VALID,25.056,VALID,51.0,VALID,2.252,
2019-10-09, 09:33:06,VALID,919.217,VALID,0.0,VALID,60.654,VALID,680.92,VALID,24.954,VALID,60.0,VALID,3.989,
2019-10-09, 09:34:06,VALID,919.218,VALID,0.0,VALID,63.711,VALID,690.271,VALID,24.658,VALID,61.0,VALID,1.855,
2019-10-09, 09:35:06,VALID,919.231,VALID,0.0,VALID,63.387,VALID,686.173,VALID,24.824,VALID,76.0,VALID,1.526,
2019-10-09, 09:36:06,VALID,919.211,VALID,0.0,VALID,62.747,VALID,704.67,VALID,25.097,VALID,61.0,VALID,1.154,
2019-10-09, 09:37:06,VALID,919.206,VALID,0.0,VALID,63.257,VALID,706.829,VALID,25.298,VALID,69.0,VALID,1.286,
2019-10-09, 09:38:06,VALID,919.194,VALID,0.0,VALID,62.977,VALID,714.131,VALID,25.513,VALID,47.0,VALID,2.188,
2019-10-09, 09:39:06,VALID,919.14,VALID,0.0,VALID,60.74,VALID,713.498,VALID,25.269,VALID,27.0,VALID,3.564,
2019-10-09, 09:40:06,VALID,919.172,VALID,0.0,VALID,62.825,VALID,721.76,VALID,25.008,VALID,41.0,VALID,2.355,
2019-10-09, 09:41:06,VALID,919.149,VALID,0.0,VALID,63.503,VALID,727.235,VALID,25.038,VALID,55.0,VALID,1.466,
2019-10-09, 09:42:06,VALID,919.161,VALID,0.0,VALID,63.225,VALID,728.596,VALID,25.39,VALID,93.0,VALID,1.727,
2019-10-09, 09:43:06,VALID,919.157,VALID,0.0,VALID,62.545,VALID,734.14,VALID,25.608,VALID,70.0,VALID,1.161,
2019-10-09, 09:44:06,VALID,919.155,VALID,0.0,VALID,63.248,VALID,732.206,VALID,25.912,VALID,34.0,VALID,1.311,
2019-10-09, 09:45:06,VALID,919.152,VALID,0.0,VALID,60.139,VALID,731.118,VALID,25.87,VALID,34.0,VALID,2.365,
2019-10-09, 09:46:06,VALID,919.206,VALID,0.0,VALID,62.922,VALID,752.551,VALID,25.754,VALID,65.0,VALID,2.553,
2019-10-09, 09:47:06,VALID,919.219,VALID,0.0,VALID,61.389,VALID,757.002,VALID,25.545,VALID,55.0,VALID,2.923,
2019-10-09, 09:48:06,VALID,919.212,VALID,0.0,VALID,60.756,VALID,737.602,VALID,25.38,VALID,40.0,VALID,2.434,
2019-10-09, 09:49:06,VALID,919.201,VALID,0.0,VALID,62.61,VALID,742.261,VALID,25.239,VALID,27.0,VALID,1.694,
2019-10-09, 09:50:06,VALID,919.228,VALID,0.0,VALID,63.356,VALID,746.138,VALID,25.244,VALID,30.0,VALID,1.849,
2019-10-09, 09:51:06,VALID,919.208,VALID,0.0,VALID,62.539,VALID,744.353,VALID,25.293,VALID,35.0,VALID,1.924,
2019-10-09, 09:52:06,VALID,919.206,VALID,0.0,VALID,63.739,VALID,747.214,VALID,25.313,VALID,35.0,VALID,2.501,
2019-10-09, 09:53:06,VALID,919.227,VALID,0.0,VALID,65.193,VALID,741.009,VALID,25.42,VALID,50.0,VALID,2.228,
2019-10-09, 09:54:06,VALID,919.223,VALID,0.0,VALID,62.483,VALID,749.534,VALID,25.563,VALID,45.0,VALID,1.936,
2019-10-09, 09:55:06,VALID,919.208,VALID,0.0,VALID,64.403,VALID,762.628,VALID,25.569,VALID,38.0,VALID,1.952,
2019-10-09, 09:56:06,VALID,919.201,VALID,0.0,VALID,63.398,VALID,761.037,VALID,25.695,VALID,33.0,VALID,2.208,
2019-10-09, 09:57:06,VALID,919.207,VALID,0.0,VALID,62.382,VALID,762.513,VALID,25.628,VALID,25.0,VALID,2.784,
2019-10-09, 09:58:06,VALID,919.212,VALID,0.0,VALID,63.38,VALID,765.861,VALID,25.464,VALID,38.0,VALID,2.4,
2019-10-09, 09:59:06,VALID,919.195,VALID,0.0,VALID,63.09,VALID,775.262,VALID,25.465,VALID,49.0,VALID,2.273,
2019-10-09, 10:00:06,VALID,919.21,VALID,0.0,VALID,62.954,VALID,781.008,VALID,25.682,VALID,47.0,VALID,3.207,
2019-10-09, 10:01:06,VALID,919.227,VALID,0.0,VALID,60.515,VALID,785.291,VALID,25.434,VALID,69.0,VALID,2.812,
2019-10-09, 10:02:06,VALID,919.224,VALID,0.0,VALID,62.299,VALID,796.255,VALID,25.272,VALID,80.0,VALID,1.455,
2019-10-09, 10:03:06,VALID,919.225,VALID,0.0,VALID,63.724,VALID,804.531,VALID,25.482,VALID,46.0,VALID,2.569,
2019-10-09, 10:04:06,VALID,919.22,VALID,0.0,VALID,63.226,VALID,796.386,VALID,25.528,VALID,42.0,VALID,2.623,
2019-10-09, 10:05:06,VALID,919.23,VALID,0.0,VALID,64.447,VALID,799.638,VALID,25.477,VALID,37.0,VALID,2.205,
2019-10-09, 10:06:06,VALID,919.244,VALID,0.0,VALID,67.646,VALID,817.937,VALID,25.685,VALID,34.0,VALID,1.543,
2019-10-09, 10:07:06,VALID,919.233,VALID,0.0,VALID,63.055,VALID,800.692,VALID,25.761,VALID,54.0,VALID,2.536,
2019-10-09, 10:08:06,VALID,919.239,VALID,0.0,VALID,63.915,VALID,813.409,VALID,25.618,VALID,32.0,VALID,1.613,
2019-10-09, 10:09:06,VALID,919.23,VALID,0.0,VALID,67.473,VALID,784.584,VALID,25.963,VALID,35.0,VALID,1.266,
2019-10-09, 10:10:06,VALID,919.23,VALID,0.0,VALID,65.035,VALID,782.547,VALID,26.485,VALID,30.0,VALID,0.778,
2019-10-09, 10:11:06,VALID,919.22,VALID,0.0,VALID,61.445,VALID,709.768,VALID,26.48,VALID,50.0,VALID,1.967,
2019-10-09, 10:12:06,VALID,919.221,VALID,0.0,VALID,61.857,VALID,744.597,VALID,26.099,VALID,81.0,VALID,1.635,
2019-10-09, 10:13:06,VALID,919.22,VALID,0.0,VALID,62.416,VALID,727.176,VALID,25.933,VALID,66.0,VALID,2.01,
2019-10-09, 10:14:06,VALID,919.205,VALID,0.0,VALID,62.088,VALID,770.972,VALID,25.709,VALID,52.0,VALID,2.361,
2019-10-09, 10:15:06,VALID,919.218,VALID,0.0,VALID,63.198,VALID,800.607,VALID,25.662,VALID,60.0,VALID,2.851,
2019-10-09, 10:16:06,VALID,919.2,VALID,0.0,VALID,62.453,VALID,854.973,VALID,25.587,VALID,53.0,VALID,1.97,
2019-10-09, 10:17:06,VALID,919.173,VALID,0.0,VALID,63.959,VALID,900.929,VALID,25.685,VALID,22.0,VALID,2.305,
2019-10-09, 10:18:06,VALID,919.182,VALID,0.0,VALID,64.337,VALID,937.674,VALID,25.673,VALID,51.0,VALID,2.011,
2019-10-09, 10:19:06,VALID,919.182,VALID,0.0,VALID,62.999,VALID,934.745,VALID,25.774,VALID,47.0,VALID,2.271,
2019-10-09, 10:20:06,VALID,919.194,VALID,0.0,VALID,63.478,VALID,971.528,VALID,25.715,VALID,39.0,VALID,1.544,
2019-10-09, 10:21:06,VALID,919.206,VALID,0.0,VALID,64.349,VALID,890.663,VALID,25.82,VALID,60.0,VALID,1.975,
2019-10-09, 10:22:06,VALID,919.214,VALID,0.0,VALID,63.767,VALID,954.461,VALID,25.909,VALID,45.0,VALID,1.68,
2019-10-09, 10:23:06,VALID,919.222,VALID,0.0,VALID,61.927,VALID,873.092,VALID,25.885,VALID,43.0,VALID,1.183,
2019-10-09, 10:24:06,VALID,919.225,VALID,0.0,VALID,63.879,VALID,985.735,VALID,25.994,VALID,63.0,VALID,1.105,
2019-10-09, 10:25:06,VALID,919.239,VALID,0.0,VALID,61.634,VALID,1005.725,VALID,26.285,VALID,54.0,VALID,0.479,
2019-10-09, 10:26:06,VALID,919.234,VALID,0.0,VALID,62.076,VALID,839.993,VALID,26.612,VALID,13.0,VALID,1.229,
2019-10-09, 10:27:06,VALID,919.241,VALID,0.0,VALID,59.496,VALID,905.474,VALID,26.521,VALID,10.0,VALID,1.429,
2019-10-09, 10:28:06,VALID,919.208,VALID,0.0,VALID,60.395,VALID,969.627,VALID,26.423,VALID,21.0,VALID,2.719,
2019-10-09, 10:29:06,VALID,919.213,VALID,0.0,VALID,61.896,VALID,960.997,VALID,26.253,VALID,30.0,VALID,2.83,
2019-10-09, 10:30:06,VALID,919.241,VALID,0.0,VALID,62.434,VALID,928.508,VALID,26.188,VALID,35.0,VALID,1.719,
2019-10-09, 10:31:06,VALID,919.224,VALID,0.0,VALID,66.305,VALID,907.061,VALID,26.49,VALID,28.0,VALID,1.961,
2019-10-09, 10:32:06,VALID,919.213,VALID,0.0,VALID,59.722,VALID,911.251,VALID,26.738,VALID,21.0,VALID,1.973,
2019-10-09, 10:33:06,VALID,919.209,VALID,0.0,VALID,60.196,VALID,895.78,VALID,26.566,VALID,23.0,VALID,1.278,
2019-10-09, 10:34:06,VALID,919.223,VALID,0.0,VALID,62.353,VALID,875.121,VALID,26.711,VALID,28.0,VALID,1.311,
2019-10-09, 10:35:06,VALID,919.217,VALID,0.0,VALID,59.263,VALID,865.591,VALID,26.693,VALID,16.0,VALID,1.507,
2019-10-09, 10:36:06,VALID,919.235,VALID,0.0,VALID,61.444,VALID,865.439,VALID,26.737,VALID,32.0,VALID,1.296,